Date,TemperatureHighF,TemperatureAvgF,TemperatureLowF,DewpointHighF,DewpointAvgF,DewpointLowF,HumidityHigh,HumidityAvg,HumidityLow,PressureMaxIn,PressureMinIn,WindSpeedMaxMPH,WindSpeedAvgMPH,GustSpeedMaxMPH,PrecipitationSumIn
2013-2-1,36,23,9,32,18,2,89,80,66,30.32,29.98,22,8,27,0.00
2013-2-2,52,38,29,36,29,25,92,72,36,30.21,30.06,30,11,32,0.00
2013-2-3,44,36,25,31,28,22,91,73,59,30.23,29.79,21,7,26,0.00
2013-2-4,36,30,26,29,26,24,93,85,72,30.00,29.80,20,7,21,0.00
2013-2-5,52,38,27,33,28,25,93,68,40,30.03,29.83,18,7,20,0.00
2013-2-6,53,40,34,43,34,27,97,80,68,29.99,29.78,22,7,28,0.00
2013-2-7,48,37,25,38,30,23,98,76,49,30.21,29.90,24,9,25,0.00
2013-2-8,34,27,22,31,26,22,98,94,83,30.24,30.00,21,8,26,0.00
2013-2-9,51,38,29,40,33,28,96,85,58,30.00,29.52,26,14,32,0.05
2013-2-10,40,33,30,39,29,21,98,86,71,29.91,29.19,41,20,47,0.02
2013-2-11,35,28,22,21,19,16,83,69,52,30.15,29.91,28,11,36,0.00
2013-2-12,46,32,22,23,19,11,82,62,25,30.12,29.91,21,7,25,0.00
2013-2-13,52,36,24,30,25,20,86,67,37,29.92,29.76,28,9,28,0.00
2013-2-14,41,33,20,31,24,16,87,72,45,30.30,29.86,40,15,43,0.00
2013-2-15,34,23,15,22,15,12,90,75,42,30.34,30.25,31,9,37,0.00
2013-2-16,50,30,14,31,22,10,92,73,47,30.31,29.92,20,6,24,0.00
2013-2-17,60,41,25,32,27,22,91,62,31,29.93,29.52,25,5,29,0.00
2013-2-18,44,34,23,31,23,16,76,65,49,30.10,29.53,35,16,40,0.00
2013-2-19,29,21,14,18,9,0,86,62,31,30.30,30.09,21,8,22,0.00
2013-2-20,21,16,9,16,9,2,90,76,51,30.27,30.05,27,13,32,0.00
2013-2-21,18,17,16,16,14,11,93,90,74,30.09,29.81,35,16,41,0.00
2013-2-22,22,15,7,17,12,4,93,89,79,30.00,29.86,17,8,18,0.00
2013-2-23,34,21,10,26,17,7,92,84,70,29.96,29.76,17,8,22,0.00
2013-2-24,32,25,12,27,22,10,95,90,75,30.05,29.80,19,6,20,0.00
2013-2-25,32,27,22,29,25,20,97,91,83,30.05,29.88,22,9,26,0.03
2013-2-26,27,23,18,25,21,16,96,93,88,29.94,29.81,19,8,21,0.01
2013-2-27,35,28,21,28,24,19,93,83,71,30.14,29.92,30,14,30,0.00
2013-2-28,31,28,26,26,24,22,87,83,78,30.22,30.12,27,12,28,0.00